This is the latest recevied weather packets stored in our database for station/object F4GCF-13. If no packets are shown the sender has not sent any weather packets the latest 1 day(s).
| Time | Temp. | Humidity | Pressure | Rain* | Wind** | Luminosity | Snow |
|---|---|---|---|---|---|---|---|
| 1836274297 | 20° C | 95% | 1018 hPa | 0 mm | 2.68 m/s, 102° | - | - |
| 1778040160 | 8.89° C | 94% | 1014 hPa | 0 mm | 3.13 m/s, 260° | - | - |
| 1778039861 | 8.89° C | 94% | 1014 hPa | 0 mm | 2.24 m/s, 252° | - | - |
| 1778039260 | 8.89° C | 94% | 1014 hPa | 0 mm | 2.24 m/s, 260° | - | - |
| 1778038659 | 8.89° C | 94% | 1014 hPa | 0 mm | 1.79 m/s, 252° | - | - |
| 1778038365 | 8.89° C | 94% | 1014 hPa | 0 mm | 2.24 m/s, 258° | - | - |
| 1778036862 | 9.44° C | 94% | 1014 hPa | 0 mm | 1.79 m/s, 264° | - | - |
| 1778035662 | 9.44° C | 93% | 1014 hPa | 0 mm | 1.79 m/s, 253° | - | - |
| 1778034462 | 9.44° C | 93% | 1014 hPa | 0 mm | 2.24 m/s, 254° | - | - |
| 1778034159 | 9.44° C | 93% | 1014 hPa | 0 mm | 1.79 m/s, 252° | - | - |
| 1778033564 | 9.44° C | 93% | 1014 hPa | 0 mm | 2.68 m/s, 263° | - | - |
| 1778031460 | 10° C | 92% | 1013 hPa | 0 mm | 2.68 m/s, 256° | - | - |
| 1778030896 | 10° C | 92% | 1013 hPa | 0 mm | 3.13 m/s, 251° | - | - |
| 1778030861 | 10° C | 92% | 1013 hPa | 0 mm | 3.13 m/s, 251° | - | - |
| 1778030564 | 10° C | 92% | 1014 hPa | 0 mm | 2.68 m/s, 252° | - | - |
| 1778029661 | 10° C | 92% | 1013 hPa | 0 mm | 2.24 m/s, 242° | - | - |
| 1778028461 | 10° C | 91% | 1014 hPa | 0 mm | 1.79 m/s, 275° | - | - |
| 1778028162 | 10° C | 91% | 1014 hPa | 0 mm | 2.24 m/s, 271° | - | - |
| 1778027863 | 10° C | 91% | 1014 hPa | 0 mm | 2.24 m/s, 248° | - | - |
| 1778026961 | 10° C | 91% | 1014 hPa | 0 mm | 1.79 m/s, 259° | - | - |
| 1778025765 | 10° C | 90% | 1014 hPa | 0 mm | 1.34 m/s, 230° | - | - |
| 1778024297 | 10° C | 89% | 1014 hPa | 0 mm | 0.45 m/s, 266° | - | - |
| 1778024261 | 10° C | 89% | 1014 hPa | 0 mm | 0.45 m/s, 266° | - | - |
| 1778023963 | 10° C | 89% | 1014 hPa | 0 mm | 0.89 m/s, 252° | - | - |
| 1778023360 | 10° C | 88% | 1014 hPa | 0 mm | 0 m/s | - | - |
* Rain latest hour (hover to see other rain measurements)
** Current wind speed in m/s (hover to see current wind gust speed)